| time (UTC) | temp F | wind direction | speed knots | gust knots | rain 1hr in | rain 24hr in | rain mn in | humidity % | barometer mb |
| 20260903234505 | 86 | 214 | 0.0 | 0.0 | 0.00 | 0.00 | 0.00 | 72 | 1015.0 |
| 20260903233005 | 87 | 98 | 0.0 | 0.9 | 0.00 | 0.00 | 0.00 | 73 | 1015.0 |
| 20260903231506 | 88 | 280 | 0.0 | 0.0 | 0.00 | 0.00 | 0.00 | 71 | 1015.0 |
| 20260903230004 | 89 | 280 | 0.0 | 0.9 | 0.00 | 0.00 | 0.00 | 68 | 1015.1 |
| 20260903224503 | 90 | 280 | 0.0 | 1.7 | 0.00 | 0.00 | 0.00 | 65 | 1015.1 |
| 20260903223002 | 91 | 280 | 0.0 | 2.6 | 0.00 | 0.00 | 0.00 | 63 | 1015.1 |
| 20260903221503 | 93 | 273 | 0.0 | 1.7 | 0.00 | 0.00 | 0.00 | 60 | 1015.0 |
| 20260903220002 | 94 | 273 | 0.0 | 1.7 | 0.00 | 0.00 | 0.00 | 59 | 1015.0 |
| 20260903214504 | 94 | 277 | 0.0 | 2.6 | 0.00 | 0.00 | 0.00 | 58 | 1015.0 |
| 20260903213112 | 95 | 277 | 0.0 | 1.7 | 0.00 | 0.00 | 0.00 | 58 | 1015.0 |
| 20260903211600 | 95 | 277 | 0.0 | 5.2 | 0.00 | 0.00 | 0.00 | 56 | 1015.1 |
| 20260903210100 | 95 | 9 | 0.9 | 2.6 | 0.00 | 0.00 | 0.00 | 56 | 1015.0 |
| 20260903204557 | 96 | 10 | 0.0 | 2.6 | 0.00 | 0.00 | 0.00 | 56 | 1015.3 |
| 20260903203057 | 95 | 337 | 0.0 | 1.7 | 0.00 | 0.00 | 0.00 | 59 | 1015.4 |
| 20260903201555 | 95 | 337 | 0.0 | 1.7 | 0.00 | 0.00 | 0.00 | 57 | 1015.5 |
| 20260903200054 | 96 | 338 | 0.9 | 7.0 | 0.00 | 0.00 | 0.00 | 55 | 1015.7 |
| 20260903194551 | 95 | 301 | 0.0 | 3.5 | 0.00 | 0.00 | 0.00 | 56 | 1015.8 |
| 20260903193050 | 95 | 302 | 0.0 | 3.5 | 0.00 | 0.00 | 0.00 | 57 | 1016.1 |
| 20260903191549 | 94 | 290 | 0.0 | 1.7 | 0.00 | 0.00 | 0.00 | 58 | 1016.2 |
| 20260903190049 | 94 | 289 | 0.0 | 4.3 | 0.00 | 0.00 | 0.00 | 58 | 1016.3 |
| 20260903184550 | 95 | 270 | 0.0 | 3.5 | 0.00 | 0.00 | 0.00 | 58 | 1016.4 |
| 20260903183044 | 94 | 274 | 0.0 | 3.5 | 0.00 | 0.00 | 0.00 | 58 | 1016.6 |
| 20260903181543 | 92 | 309 | 0.0 | 1.7 | 0.00 | 0.00 | 0.00 | 63 | 1016.6 |
| 20260903180042 | 92 | 309 | 0.0 | 2.6 | 0.00 | 0.00 | 0.00 | 60 | 1016.7 |
| 20260903174542 | 94 | 284 | 0.9 | 4.3 | 0.00 | 0.00 | 0.00 | 61 | 1016.7 |
| 20260903173038 | 92 | 281 | 0.0 | 0.0 | 0.00 | 0.00 | 0.00 | 62 | 1016.9 |
| 20260903171544 | 91 | 281 | 0.0 | 1.7 | 0.00 | 0.00 | 0.00 | 64 | 1017.1 |
| 20260903170043 | 92 | 265 | 0.9 | 1.7 | 0.00 | 0.00 | 0.00 | 62 | 1017.1 |
| 20260903164533 | 91 | 257 | 0.0 | 7.8 | 0.00 | 0.00 | 0.00 | 64 | 1017.3 |
| 20260903163034 | 92 | 193 | 1.7 | 4.3 | 0.00 | 0.00 | 0.00 | 63 | 1017.5 |
| 20260903161529 | 91 | 186 | 0.9 | 4.3 | 0.00 | 0.00 | 0.00 | 63 | 1017.5 |
| 20260903160024 | 90 | 306 | 0.9 | 3.5 | 0.00 | 0.00 | 0.00 | 64 | 1017.7 |
| 20260903154521 | 90 | 298 | 0.0 | 2.6 | 0.00 | 0.00 | 0.00 | 66 | 1017.8 |
| 20260903153019 | 89 | 333 | 1.7 | 2.6 | 0.00 | 0.00 | 0.00 | 69 | 1017.9 |
| 20260903151517 | 88 | 9 | 0.9 | 3.5 | 0.00 | 0.00 | 0.00 | 68 | 1018.0 |
| 20260903150017 | 87 | 20 | 0.9 | 4.3 | 0.00 | 0.00 | 0.00 | 68 | 1018.0 |
| 20260903144514 | 85 | 42 | 0.0 | 3.5 | 0.00 | 0.00 | 0.00 | 71 | 1018.0 |
| 20260903143006 | 84 | 41 | 0.0 | 2.6 | 0.00 | 0.00 | 0.00 | 73 | 1018.0 |
| 20260903141506 | 83 | 30 | 0.9 | 4.3 | 0.00 | 0.00 | 0.00 | 77 | 1017.9 |
| 20260903140100 | 81 | 66 | 0.0 | 2.6 | 0.00 | 0.00 | 0.00 | 79 | 1017.9 |
| 20260903134617 | 79 | 89 | 0.0 | 3.5 | 0.00 | 0.00 | 0.00 | 84 | 1018.0 |
| 20260903133055 | 77 | 55 | 0.0 | 1.7 | 0.00 | 0.00 | 0.00 | 90 | 1018.1 |
| 20260903131553 | 75 | 41 | 0.0 | 0.0 | 0.00 | 0.00 | 0.00 | 95 | 1018.2 |
| 20260903130100 | 75 | 41 | 0.0 | 0.0 | 0.00 | 0.00 | 0.00 | 96 | 1018.2 |
| 20260903124555 | 73 | 41 | 0.0 | 0.0 | 0.00 | 0.00 | 0.00 | 95 | 1018.4 |
| 20260903123051 | 73 | 41 | 0.0 | 0.0 | 0.00 | 0.00 | 0.00 | 94 | 1018.4 |
| 20260903121553 | 72 | 41 | 0.0 | 0.0 | 0.00 | 0.00 | 0.00 | 93 | 1018.4 |
| 20260903120115 | 72 | 41 | 0.0 | 0.0 | 0.00 | 0.00 | 0.00 | 93 | 1018.4 |
| 20260903114559 | 72 | 41 | 0.0 | 0.0 | 0.00 | 0.00 | 0.00 | 92 | 1018.1 |
| 20260903113042 | 72 | 41 | 0.0 | 0.0 | 0.00 | 0.00 | 0.00 | 92 | 1017.9 |
| 20260903111541 | 72 | 41 | 0.0 | 0.0 | 0.00 | 0.00 | 0.00 | 92 | 1017.9 |
| 20260903110039 | 72 | 41 | 0.0 | 0.0 | 0.00 | 0.00 | 0.00 | 92 | 1017.7 |
| 20260903104538 | 72 | 41 | 0.0 | 0.0 | 0.00 | 0.00 | 0.00 | 92 | 1017.7 |
| 20260903103036 | 72 | 41 | 0.0 | 0.0 | 0.00 | 0.00 | 0.00 | 92 | 1017.3 |
| 20260903101536 | 73 | 41 | 0.0 | 0.0 | 0.00 | 0.00 | 0.00 | 92 | 1017.3 |
| 20260903100037 | 73 | 41 | 0.0 | 0.0 | 0.00 | 0.00 | 0.00 | 92 | 1017.3 |
| 20260903094534 | 73 | 41 | 0.0 | 0.0 | 0.00 | 0.00 | 0.00 | 92 | 1017.3 |
| 20260903093032 | 73 | 41 | 0.0 | 0.0 | 0.00 | 0.00 | 0.00 | 91 | 1017.2 |
| 20260903091530 | 74 | 41 | 0.0 | 0.0 | 0.00 | 0.00 | 0.00 | 91 | 1017.1 |
| 20260903090029 | 74 | 41 | 0.0 | 0.0 | 0.00 | 0.00 | 0.00 | 91 | 1017.1 |
| 20260903084528 | 74 | 41 | 0.0 | 0.0 | 0.00 | 0.00 | 0.00 | 91 | 1017.0 |
| 20260903083026 | 74 | 41 | 0.0 | 0.0 | 0.00 | 0.00 | 0.00 | 91 | 1016.9 |
| 20260903081526 | 75 | 41 | 0.0 | 0.0 | 0.00 | 0.00 | 0.00 | 91 | 1016.8 |
| 20260903080026 | 75 | 41 | 0.0 | 0.0 | 0.00 | 0.00 | 0.00 | 91 | 1016.7 |
| 20260903074523 | 75 | 41 | 0.0 | 0.0 | 0.00 | 0.00 | 0.00 | 91 | 1016.5 |
| 20260903073023 | 75 | 41 | 0.0 | 0.0 | 0.00 | 0.00 | 0.00 | 91 | 1016.4 |
| 20260903071526 | 76 | 41 | 0.0 | 0.0 | 0.00 | 0.00 | 0.00 | 91 | 1016.4 |
| 20260903070020 | 76 | 41 | 0.0 | 0.0 | 0.00 | 0.00 | 0.00 | 91 | 1016.4 |
| 20260903064519 | 76 | 41 | 0.0 | 0.0 | 0.00 | 0.00 | 0.00 | 91 | 1016.4 |
| 20260903063020 | 76 | 41 | 0.0 | 0.0 | 0.00 | 0.00 | 0.00 | 91 | 1016.3 |
| 20260903061528 | 76 | 41 | 0.0 | 0.0 | 0.00 | 0.00 | 0.00 | 90 | 1016.3 |
| 20260903060016 | 77 | 41 | 0.0 | 0.0 | 0.00 | 0.00 | 0.00 | 90 | 1016.4 |
| 20260903054518 | 77 | 41 | 0.0 | 0.0 | 0.00 | 0.00 | 0.00 | 90 | 1016.6 |
| 20260903053011 | 77 | 41 | 0.0 | 0.0 | 0.00 | 0.00 | 0.00 | 90 | 1016.8 |
| 20260903051510 | 77 | 41 | 0.0 | 0.0 | 0.00 | 0.00 | 0.00 | 89 | 1016.9 |
| 20260903050009 | 77 | 41 | 0.0 | 0.0 | 0.00 | 0.00 | 0.00 | 89 | 1017.2 |
| 20260903044507 | 78 | 41 | 0.0 | 0.0 | 0.00 | 0.00 | 0.00 | 88 | 1017.2 |
| 20260903043006 | 78 | 41 | 0.0 | 0.0 | 0.00 | 0.00 | 0.00 | 88 | 1017.2 |
| 20260903041505 | 78 | 41 | 0.0 | 0.0 | 0.00 | 0.00 | 0.00 | 88 | 1017.1 |
| 20260903040003 | 78 | 41 | 0.0 | 0.0 | 0.00 | 0.00 | 0.00 | 86 | 1017.3 |
| 20260903034503 | 79 | 41 | 0.0 | 0.0 | 0.00 | 0.00 | 0.00 | 86 | 1017.2 |
| 20260903033005 | 79 | 41 | 0.0 | 0.0 | 0.00 | 0.00 | 0.00 | 86 | 1017.4 |
| 20260903031507 | 79 | 41 | 0.0 | 0.0 | 0.00 | 0.00 | 0.00 | 84 | 1017.4 |
| 20260903030002 | 79 | 41 | 0.0 | 0.0 | 0.00 | 0.00 | 0.00 | 84 | 1017.5 |
| 20260903024600 | 80 | 41 | 0.0 | 0.0 | 0.00 | 0.00 | 0.00 | 83 | 1017.4 |
| 20260903023100 | 80 | 41 | 0.0 | 0.0 | 0.00 | 0.00 | 0.00 | 83 | 1017.3 |
| 20260903021600 | 81 | 41 | 0.0 | 0.0 | 0.00 | 0.00 | 0.00 | 82 | 1017.5 |
| 20260903020059 | 81 | 41 | 0.0 | 0.0 | 0.00 | 0.00 | 0.00 | 81 | 1017.3 |
| 20260903014615 | 81 | 41 | 0.0 | 0.0 | 0.00 | 0.00 | 0.00 | 81 | 1017.2 |
| 20260903013104 | 82 | 41 | 0.0 | 0.0 | 0.00 | 0.00 | 0.00 | 80 | 1017.0 |
| 20260903011619 | 82 | 41 | 0.0 | 0.0 | 0.00 | 0.00 | 0.00 | 79 | 1016.9 |
| 20260903010109 | 83 | 41 | 0.0 | 0.0 | 0.00 | 0.00 | 0.00 | 79 | 1016.5 |
| 20260903004604 | 83 | 41 | 0.0 | 0.0 | 0.00 | 0.00 | 0.00 | 78 | 1016.4 |
| 20260903003108 | 84 | 41 | 0.0 | 0.0 | 0.00 | 0.00 | 0.00 | 76 | 1016.3 |
| 20260903001601 | 85 | 41 | 0.0 | 0.0 | 0.00 | 0.00 | 0.00 | 75 | 1016.2 |
| 20260903000055 | 85 | 41 | 0.0 | 0.0 | 0.00 | 0.00 | 0.00 | 75 | 1016.1 |